Time,TemperatureF,DewpointF,PressureIn,WindDirection,WindDirectionDegrees,WindSpeedMPH,WindSpeedGustMPH,Humidity,HourlyPrecipIn,Conditions,Clouds,dailyrainin,SoftwareType,DateUTC
2013-07-05 00:01:00,69.0,59.0,-100.00,West,270,0.0,0.0,71,0.00,,,0.00,,2013-07-05 04:01:00,
2013-07-05 00:11:00,69.0,59.0,-100.00,West,270,0.0,0.0,71,0.00,,,0.00,,2013-07-05 04:11:00,
2013-07-05 00:22:00,69.0,60.0,-100.00,West,270,0.0,0.0,74,0.00,,,0.00,,2013-07-05 04:22:00,
2013-07-05 00:33:00,68.0,60.0,-100.00,West,270,0.0,0.0,75,0.00,,,0.00,,2013-07-05 04:33:00,
2013-07-05 00:43:00,67.0,60.0,-100.00,West,270,0.0,0.0,77,0.00,,,0.00,,2013-07-05 04:43:00,
2013-07-05 00:53:00,67.0,60.0,-100.00,West,270,0.0,0.0,78,0.00,,,0.00,,2013-07-05 04:53:00,
2013-07-05 01:01:00,67.0,60.0,-100.00,West,270,0.0,0.0,78,0.00,,,0.00,,2013-07-05 05:01:00,
2013-07-05 01:12:00,67.0,60.0,-100.00,West,270,0.0,0.0,79,0.00,,,0.00,,2013-07-05 05:12:00,
2013-07-05 01:33:00,67.0,61.0,-100.00,West,270,0.0,0.0,80,0.00,,,0.00,,2013-07-05 05:33:00,
2013-07-05 01:43:00,67.0,61.0,-100.00,West,270,0.0,0.0,81,0.00,,,0.00,,2013-07-05 05:43:00,
2013-07-05 01:52:00,67.0,61.0,-100.00,West,270,0.0,0.0,81,0.00,,,0.00,,2013-07-05 05:52:00,
2013-07-05 02:02:00,67.0,61.0,-100.00,West,270,0.0,0.0,81,0.00,,,0.00,,2013-07-05 06:02:00,
2013-07-05 02:13:00,67.0,61.0,-100.00,West,270,0.0,0.0,81,0.00,,,0.00,,2013-07-05 06:13:00,
2013-07-05 02:23:00,67.0,61.0,-100.00,West,270,0.0,0.0,81,0.00,,,0.00,,2013-07-05 06:23:00,
2013-07-05 02:34:00,67.0,61.0,-100.00,West,270,0.0,0.0,81,0.00,,,0.00,,2013-07-05 06:34:00,
2013-07-05 02:44:00,67.0,61.0,-100.00,West,270,0.0,0.0,81,0.00,,,0.00,,2013-07-05 06:44:00,
2013-07-05 02:53:00,67.0,61.0,-100.00,West,270,0.0,0.0,80,0.00,,,0.00,,2013-07-05 06:53:00,
2013-07-05 03:02:00,67.0,61.0,-100.00,West,270,0.0,0.0,81,0.00,,,0.00,,2013-07-05 07:02:00,
2013-07-05 03:12:00,67.0,61.0,-100.00,West,270,0.0,0.0,82,0.00,,,0.00,,2013-07-05 07:12:00,
2013-07-05 03:23:00,67.0,61.0,-100.00,West,270,0.0,0.0,82,0.00,,,0.00,,2013-07-05 07:23:00,
2013-07-05 03:34:00,67.0,61.0,-100.00,West,270,0.0,0.0,82,0.00,,,0.00,,2013-07-05 07:34:00,
2013-07-05 03:43:00,67.0,61.0,-100.00,West,270,0.0,0.0,82,0.00,,,0.00,,2013-07-05 07:43:00,
2013-07-05 04:02:00,67.0,62.0,-100.00,West,270,0.0,0.0,83,0.00,,,0.00,,2013-07-05 08:02:00,
2013-07-05 04:12:00,67.0,62.0,-100.00,West,270,0.0,0.0,83,0.00,,,0.00,,2013-07-05 08:12:00,
2013-07-05 04:23:00,67.0,62.0,-100.00,West,270,0.0,0.0,83,0.00,,,0.00,,2013-07-05 08:23:00,
2013-07-05 04:33:00,67.0,62.0,-100.00,West,270,0.0,0.0,83,0.00,,,0.00,,2013-07-05 08:33:00,
2013-07-05 04:43:00,67.0,62.0,-100.00,West,270,0.0,0.0,84,0.00,,,0.00,,2013-07-05 08:43:00,
2013-07-05 04:54:00,67.0,62.0,-100.00,West,270,0.0,0.0,84,0.00,,,0.00,,2013-07-05 08:54:00,
2013-07-05 05:08:00,67.0,62.0,-100.00,West,270,0.0,0.0,84,0.00,,,0.00,,2013-07-05 09:08:00,
2013-07-05 05:16:00,67.0,62.0,-100.00,West,270,0.0,0.0,85,0.00,,,0.00,,2013-07-05 09:16:00,
2013-07-05 05:26:00,67.0,62.0,-100.00,West,270,0.0,0.0,85,0.00,,,0.00,,2013-07-05 09:26:00,
2013-07-05 05:37:00,67.0,63.0,-100.00,West,270,0.0,0.0,86,0.00,,,0.00,,2013-07-05 09:37:00,
2013-07-05 05:47:00,67.0,63.0,-100.00,West,270,0.0,0.0,86,0.00,,,0.00,,2013-07-05 09:47:00,
2013-07-05 05:54:00,67.0,62.0,-100.00,West,270,0.0,0.0,85,0.00,,,0.00,,2013-07-05 09:54:00,
2013-07-05 06:07:00,67.0,62.0,-100.00,West,270,0.0,0.0,85,0.00,,,0.00,,2013-07-05 10:07:00,
2013-07-05 06:18:00,67.0,62.0,-100.00,West,270,0.0,0.0,85,0.00,,,0.00,,2013-07-05 10:18:00,
2013-07-05 06:26:00,67.0,63.0,-100.00,West,270,0.0,0.0,86,0.00,,,0.00,,2013-07-05 10:26:00,
2013-07-05 06:36:00,67.0,63.0,-100.00,West,270,0.0,0.0,86,0.00,,,0.00,,2013-07-05 10:36:00,
2013-07-05 06:47:00,67.0,63.0,-100.00,West,270,0.0,0.0,87,0.00,,,0.00,,2013-07-05 10:47:00,
2013-07-05 06:55:00,67.0,63.0,-100.00,West,270,0.0,0.0,88,0.00,,,0.00,,2013-07-05 10:55:00,
2013-07-05 07:08:00,66.0,62.0,-100.00,West,270,0.0,0.0,88,0.00,,,0.00,,2013-07-05 11:08:00,
2013-07-05 07:17:00,66.0,62.0,-100.00,West,270,0.0,0.0,88,0.00,,,0.00,,2013-07-05 11:17:00,
2013-07-05 07:24:00,66.0,62.0,-100.00,West,270,0.0,0.0,88,0.00,,,0.00,,2013-07-05 11:24:00,
2013-07-05 07:37:00,67.0,63.0,-100.00,West,270,0.0,0.0,88,0.00,,,0.00,,2013-07-05 11:37:00,
2013-07-05 07:46:00,67.0,64.0,-100.00,West,270,0.0,0.0,89,0.00,,,0.00,,2013-07-05 11:46:00,
2013-07-05 07:56:00,67.0,63.0,-100.00,West,270,0.0,0.0,88,0.00,,,0.00,,2013-07-05 11:56:00,
2013-07-05 08:08:00,68.0,64.0,-100.00,West,270,0.0,0.0,88,0.00,,,0.00,,2013-07-05 12:08:00,
2013-07-05 08:16:00,68.0,64.0,-100.00,West,270,0.0,0.0,88,0.00,,,0.00,,2013-07-05 12:16:00,
2013-07-05 08:24:00,68.0,64.0,-100.00,West,270,0.0,0.0,86,0.00,,,0.00,,2013-07-05 12:24:00,
2013-07-05 08:37:00,69.0,64.0,-100.00,West,270,0.0,0.0,83,0.00,,,0.00,,2013-07-05 12:37:00,
2013-07-05 08:47:00,69.0,63.0,-100.00,West,270,0.0,0.0,80,0.00,,,0.00,,2013-07-05 12:47:00,
2013-07-05 08:56:00,69.0,62.0,-100.00,West,270,0.0,0.0,79,0.00,,,0.00,,2013-07-05 12:56:00,
2013-07-05 09:06:00,70.0,62.0,-100.00,West,270,0.0,0.0,77,0.00,,,0.00,,2013-07-05 13:06:00,
2013-07-05 09:13:00,71.0,62.0,-100.00,West,270,0.0,0.0,74,0.00,,,0.00,,2013-07-05 13:13:00,
2013-07-05 09:25:00,72.0,62.0,-100.00,West,270,0.0,0.0,71,0.00,,,0.00,,2013-07-05 13:25:00,
2013-07-05 09:39:00,73.0,61.0,-100.00,West,270,0.0,0.0,67,0.00,,,0.00,,2013-07-05 13:39:00,
2013-07-05 09:48:00,73.0,61.0,-100.00,West,270,0.0,0.0,65,0.00,,,0.00,,2013-07-05 13:48:00,
2013-07-05 09:55:00,74.0,61.0,-100.00,West,270,0.0,0.0,64,0.00,,,0.00,,2013-07-05 13:55:00,
2013-07-05 10:07:00,75.0,62.0,-100.00,West,270,0.0,0.0,64,0.00,,,0.00,,2013-07-05 14:07:00,
2013-07-05 10:16:00,75.0,61.0,-100.00,West,270,0.0,0.0,62,0.00,,,0.00,,2013-07-05 14:16:00,
2013-07-05 10:37:00,76.0,62.0,-100.00,NNW,338,1.0,0.0,61,0.00,,,0.00,,2013-07-05 14:37:00,
2013-07-05 10:46:00,76.0,61.0,-100.00,NNW,338,0.0,0.0,60,0.00,,,0.00,,2013-07-05 14:46:00,
2013-07-05 10:55:00,77.0,61.0,-100.00,NNW,338,0.0,0.0,57,0.00,,,0.00,,2013-07-05 14:55:00,
2013-07-05 11:07:00,77.0,62.0,-100.00,NNW,338,0.0,0.0,59,0.00,,,0.00,,2013-07-05 15:07:00,
2013-07-05 11:16:00,76.0,61.0,-100.00,NNW,338,0.0,0.0,59,0.00,,,0.00,,2013-07-05 15:16:00,
2013-07-05 11:24:00,76.0,61.0,-100.00,NNW,338,0.0,0.0,60,0.00,,,0.00,,2013-07-05 15:24:00,
2013-07-05 11:53:00,75.0,60.0,-100.00,WSW,248,0.0,0.0,60,0.00,,,0.00,,2013-07-05 15:53:00,
2013-07-05 12:33:00,77.0,60.0,-100.00,North,0,0.0,0.0,56,0.00,,,0.00,,2013-07-05 16:33:00,
2013-07-05 12:53:00,78.0,58.0,-100.00,North,0,0.0,0.0,51,0.00,,,0.00,,2013-07-05 16:53:00,
2013-07-05 13:12:00,79.0,59.0,-100.00,WSW,248,3.0,5.0,50,0.00,,,0.00,,2013-07-05 17:12:00,
2013-07-05 14:33:00,80.0,60.0,-100.00,SW,225,1.0,7.0,50,0.00,,,0.00,,2013-07-05 18:33:00,
2013-07-05 14:43:00,81.0,59.0,-100.00,SSW,203,1.0,3.0,47,0.00,,,0.00,,2013-07-05 18:43:00,
2013-07-05 14:53:00,81.0,59.0,-100.00,SSE,158,0.0,0.0,47,0.00,,,0.00,,2013-07-05 18:53:00,
2013-07-05 15:53:00,81.0,57.0,-100.00,WSW,248,5.0,8.0,44,0.00,,,0.00,,2013-07-05 19:53:00,
2013-07-05 16:43:00,81.0,58.0,-100.00,West,270,0.0,0.0,45,0.00,,,0.00,,2013-07-05 20:43:00,
2013-07-05 17:01:00,83.0,59.0,-100.00,East,90,1.0,6.0,44,0.00,,,0.00,,2013-07-05 21:01:00,
2013-07-05 17:12:00,83.0,58.0,-100.00,WSW,248,5.0,7.0,43,0.00,,,0.00,,2013-07-05 21:12:00,
2013-07-05 17:43:00,82.0,59.0,-100.00,South,180,0.0,3.0,45,0.00,,,0.00,,2013-07-05 21:43:00,
2013-07-05 17:53:00,82.0,59.0,-100.00,SW,225,0.0,0.0,45,0.00,,,0.00,,2013-07-05 21:53:00,
2013-07-05 18:11:00,82.0,59.0,-100.00,South,180,1.0,6.0,46,0.00,,,0.00,,2013-07-05 22:11:00,
2013-07-05 18:22:00,82.0,60.0,-100.00,SSW,203,0.0,0.0,47,0.00,,,0.00,,2013-07-05 22:22:00,
2013-07-05 18:34:00,82.0,59.0,-100.00,SW,225,6.0,9.0,45,0.00,,,0.00,,2013-07-05 22:34:00,
2013-07-05 18:43:00,81.0,58.0,-100.00,SW,225,6.0,7.0,46,0.00,,,0.00,,2013-07-05 22:43:00,
2013-07-05 18:53:00,81.0,58.0,-100.00,SW,225,6.0,7.0,46,0.00,,,0.00,,2013-07-05 22:53:00,
2013-07-05 19:02:00,81.0,59.0,-100.00,SSE,158,0.0,3.0,47,0.00,,,0.00,,2013-07-05 23:02:00,
2013-07-05 19:11:00,81.0,58.0,-100.00,SSW,203,2.0,2.0,46,0.00,,,0.00,,2013-07-05 23:11:00,
2013-07-05 19:23:00,82.0,59.0,-100.00,South,180,0.0,0.0,46,0.00,,,0.00,,2013-07-05 23:23:00,
2013-07-05 19:32:00,82.0,59.0,-100.00,SE,135,0.0,0.0,45,0.00,,,0.00,,2013-07-05 23:32:00,
2013-07-05 19:43:00,82.0,59.0,-100.00,SSW,203,1.0,6.0,45,0.00,,,0.00,,2013-07-05 23:43:00,
2013-07-05 19:53:00,82.0,59.0,-100.00,South,180,0.0,0.0,46,0.00,,,0.00,,2013-07-05 23:53:00,
2013-07-05 20:01:00,81.0,58.0,-100.00,West,270,2.0,2.0,46,0.00,,,0.00,,2013-07-06 00:01:00,
2013-07-05 20:12:00,80.0,58.0,-100.00,SSE,158,2.0,5.0,47,0.00,,,0.00,,2013-07-06 00:12:00,
2013-07-05 20:22:00,80.0,58.0,-100.00,South,180,0.0,0.0,47,0.00,,,0.00,,2013-07-06 00:22:00,
2013-07-05 20:33:00,80.0,59.0,-100.00,South,180,0.0,0.0,48,0.00,,,0.00,,2013-07-06 00:33:00,
2013-07-05 20:42:00,79.0,58.0,-100.00,South,180,0.0,0.0,48,0.00,,,0.00,,2013-07-06 00:42:00,
2013-07-05 20:53:00,79.0,58.0,-100.00,South,180,0.0,0.0,49,0.00,,,0.00,,2013-07-06 00:53:00,
2013-07-05 21:02:00,79.0,59.0,-100.00,South,180,0.0,0.0,50,0.00,,,0.00,,2013-07-06 01:02:00,
2013-07-05 21:12:00,78.0,58.0,-100.00,South,180,0.0,0.0,51,0.00,,,0.00,,2013-07-06 01:12:00,
2013-07-05 21:22:00,78.0,59.0,-100.00,South,180,0.0,0.0,52,0.00,,,0.00,,2013-07-06 01:22:00,
2013-07-05 21:43:00,77.0,60.0,-100.00,South,180,0.0,0.0,56,0.00,,,0.00,,2013-07-06 01:43:00,
2013-07-05 21:53:00,77.0,61.0,-100.00,South,180,0.0,0.0,57,0.00,,,0.00,,2013-07-06 01:53:00,
2013-07-05 22:12:00,76.0,61.0,-100.00,South,180,0.0,0.0,60,0.00,,,0.00,,2013-07-06 02:12:00,
2013-07-05 22:34:00,75.0,62.0,-100.00,South,180,0.0,0.0,64,0.00,,,0.00,,2013-07-06 02:34:00,
2013-07-05 22:43:00,75.0,63.0,-100.00,South,180,0.0,0.0,67,0.00,,,0.00,,2013-07-06 02:43:00,
2013-07-05 22:53:00,75.0,64.0,-100.00,South,180,0.0,0.0,68,0.00,,,0.00,,2013-07-06 02:53:00,
2013-07-05 23:02:00,75.0,64.0,-100.00,South,180,0.0,0.0,68,0.00,,,0.00,,2013-07-06 03:02:00,
2013-07-05 23:34:00,74.0,66.0,-100.00,South,180,0.0,0.0,76,0.00,,,0.00,,2013-07-06 03:34:00,
2013-07-05 23:52:00,73.0,66.0,-100.00,SE,135,0.0,1.0,78,0.00,,,0.00,,2013-07-06 03:52:00,